• In Czech Republic
  • List of Countries
  • For 7 days
  • Water Temperature
  • Satellite Maps
  • Weather Map
  • Weather Widgets
  • user-avatar
    Login

    Hourly Weather Zajaczkowo

    Today, 21 September, Friday

    Time Temperature Precipitation Wind Pressure Humidity
    00:00 +19°C° 0 mm 3 mps 746 mmHg 70%
    01:00 +18°C° 0 mm 2 mps 746 mmHg 72%
    02:00 +18°C° 0 mm 2 mps 746 mmHg 73%
    03:00 +18°C° 0 mm 2 mps 746 mmHg 74%
    04:00 +17°C° 0 mm 2 mps 745 mmHg 75%
    05:00 +17°C° 0 mm 2 mps 745 mmHg 76%
    06:00 +18°C° 0 mm 3 mps 745 mmHg 74%
    07:00 +18°C° 0 mm 3 mps 745 mmHg 72%
    08:00 +19°C° 0 mm 3 mps 745 mmHg 67%
    09:00 +21°C° 0 mm 4 mps 745 mmHg 62%
    10:00 +22°C° 0 mm 4 mps 745 mmHg 57%
    11:00 +25°C° 0 mm 5 mps 745 mmHg 53%
    12:00 +26°C° 0 mm 5 mps 744 mmHg 49%
    13:00 +27°C° 0 mm 5 mps 744 mmHg 46%
    14:00 +27°C° 0 mm 5 mps 743 mmHg 42%
    15:00 +27°C° 0 mm 5 mps 743 mmHg 45%
    16:00 +26°C° 0 mm 5 mps 742 mmHg 48%
    17:00 +25°C° 0 mm 4 mps 741 mmHg 50%
    18:00 +23°C° 0 mm 5 mps 741 mmHg 52%
    19:00 +22°C° 0 mm 5 mps 740 mmHg 53%
    20:00 +21°C° 0 mm 5 mps 740 mmHg 54%
    21:00 +20°C° 0 mm 6 mps 739 mmHg 54%
    22:00 +20°C° 0 mm 6 mps 739 mmHg 53%
    23:00 +20°C° 0 mm 6 mps 739 mmHg 53%

    Tomorrow, 22 September, Saturday

    Time Temperature Precipitation Wind Pressure Humidity
    00:00 +20°C° 0 mm 6 mps 739 mmHg 55%
    01:00 +20°C° 0 mm 6 mps 739 mmHg 57%
    02:00 +20°C° 0 mm 6 mps 738 mmHg 59%
    03:00 +17°C° 1.2 mm 6 mps 739 mmHg 69%
    04:00 +15°C° 1.2 mm 6 mps 739 mmHg 78%
    05:00 +13°C° 1.2 mm 6 mps 740 mmHg 87%
    06:00 +13°C° 0.5 mm 6 mps 740 mmHg 85%
    07:00 +12°C° 0.5 mm 5 mps 741 mmHg 83%
    08:00 +12°C° 0.5 mm 5 mps 742 mmHg 81%
    09:00 +12°C° 0 mm 5 mps 742 mmHg 75%
    10:00 +12°C° 0 mm 5 mps 743 mmHg 70%
    11:00 +13°C° 0 mm 6 mps 743 mmHg 64%
    12:00 +13°C° 0 mm 6 mps 743 mmHg 61%
    13:00 +14°C° 0 mm 6 mps 743 mmHg 58%
    14:00 +15°C° 0 mm 6 mps 743 mmHg 55%
    15:00 +14°C° 0.1 mm 6 mps 743 mmHg 58%
    16:00 +14°C° 0.1 mm 5 mps 743 mmHg 60%
    17:00 +14°C° 0.1 mm 5 mps 743 mmHg 62%
    18:00 +12°C° 0.1 mm 4 mps 743 mmHg 68%
    19:00 +11°C° 0.1 mm 3 mps 743 mmHg 74%
    20:00 +9°C° 0.1 mm 3 mps 743 mmHg 80%
    21:00 +9°C° 0 mm 3 mps 743 mmHg 80%
    22:00 +9°C° 0 mm 3 mps 743 mmHg 81%
    23:00 +9°C° 0 mm 3 mps 743 mmHg 82%

    Day after tomorrow, 23 September, Sunday

    Time Temperature Precipitation Wind Pressure Humidity
    00:00 +8°C° 0 mm 4 mps 743 mmHg 82%
    01:00 +8°C° 0 mm 4 mps 743 mmHg 82%
    02:00 +8°C° 0 mm 4 mps 743 mmHg 82%
    03:00 +8°C° 0 mm 4 mps 742 mmHg 82%
    04:00 +7°C° 0 mm 4 mps 742 mmHg 82%
    05:00 +7°C° 0 mm 4 mps 742 mmHg 83%
    06:00 +8°C° 0 mm 5 mps 742 mmHg 80%
    07:00 +8°C° 0 mm 6 mps 742 mmHg 78%
    08:00 +8°C° 0 mm 6 mps 742 mmHg 75%
    09:00 +9°C° 0 mm 7 mps 742 mmHg 72%
    10:00 +10°C° 0 mm 7 mps 742 mmHg 68%
    11:00 +11°C° 0 mm 7 mps 742 mmHg 65%
    12:00 +11°C° 0.1 mm 7 mps 742 mmHg 64%
    13:00 +11°C° 0.1 mm 7 mps 742 mmHg 63%
    14:00 +12°C° 0.1 mm 7 mps 742 mmHg 62%
    15:00 +12°C° 0.1 mm 7 mps 742 mmHg 62%
    16:00 +13°C° 0.1 mm 6 mps 742 mmHg 63%
    17:00 +13°C° 0.1 mm 5 mps 742 mmHg 63%
    18:00 +12°C° 0 mm 5 mps 742 mmHg 68%
    19:00 +10°C° 0 mm 4 mps 742 mmHg 73%
    20:00 +9°C° 0 mm 3 mps 742 mmHg 79%
    21:00 +9°C° 0 mm 3 mps 741 mmHg 79%
    22:00 +8°C° 0 mm 3 mps 741 mmHg 80%
    23:00 +8°C° 0 mm 3 mps 741 mmHg 81%

    24 September, Monday

    Time Temperature Precipitation Wind Pressure Humidity
    00:00 +8°C° 0 mm 2 mps 740 mmHg 80%
    01:00 +8°C° 0 mm 2 mps 739 mmHg 80%
    02:00 +8°C° 0 mm 2 mps 739 mmHg 80%
    03:00 +8°C° 0.3 mm 2 mps 738 mmHg 83%
    04:00 +8°C° 0.3 mm 2 mps 737 mmHg 86%
    05:00 +8°C° 0.3 mm 2 mps 736 mmHg 88%
    06:00 +8°C° 1.1 mm 2 mps 736 mmHg 90%
    07:00 +7°C° 1.1 mm 2 mps 735 mmHg 91%
    08:00 +7°C° 1.1 mm 2 mps 734 mmHg 93%
    09:00 +8°C° 0.6 mm 3 mps 735 mmHg 91%
    10:00 +8°C° 0.6 mm 4 mps 735 mmHg 89%
    11:00 +8°C° 0.6 mm 4 mps 735 mmHg 87%
    12:00 +9°C° 0.6 mm 5 mps 736 mmHg 82%
    13:00 +10°C° 0.6 mm 6 mps 737 mmHg 77%
    14:00 +10°C° 0.6 mm 6 mps 737 mmHg 72%
    15:00 +10°C° 0.4 mm 6 mps 738 mmHg 73%
    16:00 +9°C° 0.4 mm 6 mps 739 mmHg 75%
    17:00 +9°C° 0.4 mm 6 mps 739 mmHg 77%
    18:00 +8°C° 0.4 mm 6 mps 740 mmHg 80%
    19:00 +7°C° 0.4 mm 6 mps 741 mmHg 82%
    20:00 +5°C° 0.4 mm 7 mps 742 mmHg 85%
    21:00 +5°C° 0.1 mm 6 mps 743 mmHg 85%
    22:00 +4°C° 0.1 mm 6 mps 744 mmHg 85%
    23:00 +5°C° 0.1 mm 5 mps 744 mmHg 85%

    25 September, Tuesday

    Time Temperature Precipitation Wind Pressure Humidity
    00:00 +5°C° 0 mm 5 mps 745 mmHg 86%
    01:00 +3°C° 0 mm 5 mps 746 mmHg 87%
    02:00 +3°C° 0 mm 5 mps 746 mmHg 88%
    03:00 +3°C° 0 mm 5 mps 747 mmHg 87%
    04:00 +3°C° 0 mm 5 mps 747 mmHg 86%
    05:00 +3°C° 0 mm 5 mps 748 mmHg 84%
    06:00 +3°C° 0 mm 5 mps 748 mmHg 82%
    07:00 +5°C° 0 mm 5 mps 749 mmHg 80%
    08:00 +4°C° 0 mm 6 mps 749 mmHg 78%
    09:00 +5°C° 0.1 mm 6 mps 750 mmHg 72%
    10:00 +6°C° 0.1 mm 7 mps 750 mmHg 67%
    11:00 +7°C° 0.1 mm 8 mps 751 mmHg 61%
    12:00 +9°C° 0.1 mm 8 mps 751 mmHg 56%
    13:00 +10°C° 0.1 mm 8 mps 751 mmHg 51%
    14:00 +10°C° 0.1 mm 8 mps 751 mmHg 47%
    15:00 +10°C° 0 mm 7 mps 751 mmHg 49%
    16:00 +10°C° 0 mm 6 mps 752 mmHg 50%
    17:00 +9°C° 0 mm 5 mps 752 mmHg 52%
    18:00 +8°C° 0 mm 5 mps 752 mmHg 59%
    19:00 +7°C° 0 mm 4 mps 752 mmHg 66%
    20:00 +6°C° 0 mm 4 mps 752 mmHg 73%
    21:00 +6°C° 0 mm 4 mps 751 mmHg 77%
    22:00 +7°C° 0 mm 5 mps 751 mmHg 80%
    23:00 +7°C° 0 mm 6 mps 751 mmHg 84%

    26 September, Wednesday

    Time Temperature Precipitation Wind Pressure Humidity
    00:00 +8°C° 0.1 mm 6 mps 750 mmHg 85%
    01:00 +8°C° 0.1 mm 6 mps 750 mmHg 85%
    02:00 +9°C° 0.1 mm 6 mps 749 mmHg 86%
    03:00 +9°C° 0.3 mm 6 mps 749 mmHg 87%
    04:00 +9°C° 0.3 mm 7 mps 749 mmHg 88%
    05:00 +9°C° 0.3 mm 7 mps 748 mmHg 88%
    06:00 +8°C° 1 mm 7 mps 748 mmHg 89%
    07:00 +8°C° 1 mm 7 mps 748 mmHg 89%
    08:00 +8°C° 1 mm 7 mps 748 mmHg 89%
    09:00 +9°C° 0.5 mm 7 mps 748 mmHg 88%
    10:00 +9°C° 0.5 mm 7 mps 748 mmHg 87%
    11:00 +9°C° 0.5 mm 7 mps 748 mmHg 86%
    12:00 +10°C° 0.3 mm 7 mps 748 mmHg 81%
    13:00 +11°C° 0.3 mm 7 mps 748 mmHg 76%
    14:00 +11°C° 0.3 mm 7 mps 748 mmHg 72%
    15:00 +11°C° 0.2 mm 7 mps 748 mmHg 75%
    16:00 +11°C° 0.2 mm 6 mps 748 mmHg 78%
    17:00 +10°C° 0.2 mm 5 mps 749 mmHg 81%
    18:00 +10°C° 0.2 mm 5 mps 749 mmHg 83%
    19:00 +10°C° 0.2 mm 5 mps 749 mmHg 86%
    20:00 +10°C° 0.2 mm 4 mps 749 mmHg 88%
    21:00 +9°C° 0.1 mm 5 mps 749 mmHg 89%
    22:00 +9°C° 0.1 mm 5 mps 749 mmHg 90%
    23:00 +9°C° 0.1 mm 5 mps 749 mmHg 90%
    Show more